Location: Kellogg
(38.0159°N, 90.0546°W)
Time: 14:52:16
(UTC+00:00)

ARIANE 6 FM1 Upper Stage - Pass Details

Date: 25 January 2026
Orbit: 522 x 609 km, 62.0° (Epoch: 9 February)

Event Time Altitude Azimuth Distance (km) Brightness Sun altitude
Rises 23:53:38 0° 224° (SW) 2,723 7.4 -7.8°
Reaches altitude 10° 23:55:55 10° 229° (SW) 1,818 6.5 -8.3°
Maximum altitude 23:59:54 53° 307° (NW) 664 3.3 -9.0°
Drops below altitude 10° 00:03:50 10° 26° (NNE) 1,785 4.8 -9.8°
Enters shadow 00:04:53 - 28° (NNE) 2,195 5.3 -9.9°
